DLH2020 EHAM-EDDH

Flight info

Callsign DLH2020
Flight time 0h 40m
Altitude 24000
Route ANDIK M105 RIBSO RIBSO7A
Aircraft A320/M-SDE3FGHIRWY/LB1

Departure

Time 2026-05-06 18:12
Airport Amsterdam Airport Schiphol (EHAM)

Arrival

Time 2026-05-06 18:53
Airport Hamburg Helmut Schmidt Airport (EDDH)
Time Latitude Longitude Altitude Speed Heading
2026-05-06 17:30 52.30575 4.76696 -1 ft 0 kts 213°
2026-05-06 18:01 52.30581 4.76702 -1 ft 4 kts 214°
2026-05-06 18:01 52.30603 4.76728 -1 ft 4 kts 216°
2026-05-06 18:01 52.30624 4.76750 -1 ft 4 kts 197°
2026-05-06 18:01 52.30649 4.76753 -1 ft 4 kts 161°
2026-05-06 18:02 52.30665 4.76741 -1 ft 1 kts 148°
2026-05-06 18:02 52.30668 4.76739 -1 ft 0 kts 148°
2026-05-06 18:05 52.30667 4.76739 -1 ft 1 kts 148°
2026-05-06 18:05 52.30643 4.76765 -1 ft 7 kts 146°
2026-05-06 18:06 52.30600 4.76852 -1 ft 13 kts 115°
2026-05-06 18:06 52.30524 4.76951 -1 ft 15 kts 149°
2026-05-06 18:06 52.30448 4.76923 -1 ft 15 kts 233°
2026-05-06 18:06 52.30383 4.76752 -1 ft 20 kts 237°
2026-05-06 18:07 52.30299 4.76535 -1 ft 24 kts 237°
2026-05-06 18:07 52.30204 4.76283 -1 ft 27 kts 239°
2026-05-06 18:07 52.30106 4.76031 -1 ft 26 kts 239°
2026-05-06 18:07 52.30017 4.75800 -1 ft 22 kts 238°
2026-05-06 18:08 52.29943 4.75603 -1 ft 20 kts 238°
2026-05-06 18:08 52.29880 4.75439 -1 ft 15 kts 238°
2026-05-06 18:08 52.29832 4.75298 -1 ft 14 kts 255°
2026-05-06 18:08 52.29857 4.75167 -1 ft 13 kts 312°
2026-05-06 18:09 52.29935 4.75021 -1 ft 21 kts 311°
2026-05-06 18:09 52.30045 4.74817 0 ft 26 kts 312°
2026-05-06 18:09 52.30161 4.74603 10 ft 24 kts 311°
2026-05-06 18:09 52.30265 4.74410 10 ft 17 kts 310°
2026-05-06 18:10 52.30336 4.74239 -1 ft 14 kts 279°
2026-05-06 18:10 52.30362 4.74123 -1 ft 10 kts 253°
2026-05-06 18:10 52.30327 4.74045 -1 ft 8 kts 223°
2026-05-06 18:10 52.30275 4.73979 -1 ft 11 kts 215°
2026-05-06 18:11 52.30210 4.73903 -1 ft 11 kts 217°
2026-05-06 18:11 52.30187 4.73838 -2 ft 10 kts 253°
2026-05-06 18:11 52.30253 4.73741 -4 ft 16 kts
2026-05-06 18:11 52.30449 4.73761 -3 ft 56 kts
2026-05-06 18:12 52.31068 4.73815 0 ft 119 kts
2026-05-06 18:12 52.32067 4.73898 55 ft 161 kts
2026-05-06 18:12 52.33192 4.73965 618 ft 167 kts
2026-05-06 18:12 52.34396 4.74059 1225 ft 178 kts
2026-05-06 18:13 52.35243 4.74316 1508 ft 189 kts 20°
2026-05-06 18:13 52.36518 4.75207 1879 ft 212 kts 27°
2026-05-06 18:13 52.37880 4.76421 2377 ft 232 kts 40°
2026-05-06 18:13 52.38933 4.78479 3176 ft 240 kts 53°
2026-05-06 18:14 52.40006 4.80587 4066 ft 245 kts 48°
2026-05-06 18:14 52.41191 4.82648 4888 ft 253 kts 45°
2026-05-06 18:14 52.42439 4.84689 5778 ft 257 kts 41°
2026-05-06 18:14 52.44009 4.86073 6704 ft 261 kts 15°
2026-05-06 18:15 52.45838 4.86211 7514 ft 267 kts 358°
2026-05-06 18:15 52.47686 4.86544 8306 ft 272 kts 22°
2026-05-06 18:15 52.49253 4.88306 9111 ft 278 kts 43°
2026-05-06 18:15 52.50639 4.90562 9881 ft 284 kts 43°
2026-05-06 18:16 52.52092 4.92876 10324 ft 302 kts 41°
2026-05-06 18:16 52.53677 4.95353 10563 ft 326 kts 41°
2026-05-06 18:16 52.55382 4.97997 10840 ft 346 kts 42°
2026-05-06 18:16 52.57149 5.00732 11464 ft 352 kts 41°
2026-05-06 18:17 52.58923 5.03486 12161 ft 357 kts 42°
2026-05-06 18:17 52.60761 5.06355 12869 ft 362 kts 40°
2026-05-06 18:17 52.62575 5.09190 13527 ft 367 kts 40°
2026-05-06 18:17 52.64434 5.12099 14147 ft 372 kts 42°
2026-05-06 18:18 52.66323 5.15061 14713 ft 378 kts 42°
2026-05-06 18:18 52.68236 5.18062 15306 ft 382 kts 41°
2026-05-06 18:18 52.70170 5.21105 15859 ft 387 kts 41°
2026-05-06 18:18 52.72105 5.24234 16457 ft 392 kts 46°
2026-05-06 18:19 52.73766 5.27840 17026 ft 399 kts 57°
2026-05-06 18:19 52.75016 5.31963 17616 ft 405 kts 68°
2026-05-06 18:19 52.75963 5.36360 18216 ft 409 kts 70°
2026-05-06 18:19 52.76871 5.40833 18723 ft 413 kts 71°
2026-05-06 18:20 52.77718 5.45385 19274 ft 416 kts 73°
2026-05-06 18:20 52.78529 5.49992 19774 ft 420 kts 73°
2026-05-06 18:20 52.79325 5.54641 20356 ft 422 kts 74°
2026-05-06 18:20 52.80125 5.59322 20871 ft 425 kts 74°
2026-05-06 18:21 52.80951 5.64091 21416 ft 427 kts 74°
2026-05-06 18:21 52.81781 5.68817 21889 ft 431 kts 73°
2026-05-06 18:21 52.82627 5.73590 22372 ft 433 kts 73°
2026-05-06 18:21 52.83465 5.78324 22809 ft 436 kts 73°
2026-05-06 18:22 52.84314 5.83137 22929 ft 437 kts 74°
2026-05-06 18:22 52.85161 5.87948 22934 ft 436 kts 74°
2026-05-06 18:22 52.86009 5.92782 22935 ft 437 kts 74°
2026-05-06 18:22 52.86856 5.97614 22931 ft 437 kts 74°
2026-05-06 18:23 52.87694 6.02435 22934 ft 437 kts 74°
2026-05-06 18:23 52.88532 6.07270 22927 ft 437 kts 74°
2026-05-06 18:23 52.89367 6.12108 22930 ft 436 kts 74°
2026-05-06 18:23 52.90193 6.16913 22936 ft 434 kts 74°
2026-05-06 18:24 52.91021 6.21736 22933 ft 434 kts 74°
2026-05-06 18:24 52.91846 6.26539 22937 ft 434 kts 74°
2026-05-06 18:24 52.92671 6.31354 22930 ft 434 kts 74°
2026-05-06 18:24 52.93495 6.36172 22930 ft 434 kts 74°
2026-05-06 18:25 52.94315 6.40986 22931 ft 434 kts 74°
2026-05-06 18:25 52.95135 6.45809 22935 ft 434 kts 74°
2026-05-06 18:25 52.95951 6.50615 22924 ft 434 kts 74°
2026-05-06 18:25 52.96768 6.55433 22925 ft 434 kts 74°
2026-05-06 18:26 52.97582 6.60261 22924 ft 434 kts 75°
2026-05-06 18:26 52.98392 6.65088 22923 ft 434 kts 75°
2026-05-06 18:26 52.99200 6.69918 22920 ft 434 kts 75°
2026-05-06 18:26 53.00006 6.74752 22918 ft 434 kts 75°
2026-05-06 18:27 53.00809 6.79580 22917 ft 434 kts 75°
2026-05-06 18:27 53.01611 6.84413 22923 ft 434 kts 75°
2026-05-06 18:27 53.02412 6.89248 22919 ft 434 kts 75°
2026-05-06 18:27 53.03213 6.94087 22919 ft 434 kts 75°
2026-05-06 18:28 53.04010 6.98931 22923 ft 434 kts 75°
2026-05-06 18:28 53.04803 7.03768 22924 ft 435 kts 75°
2026-05-06 18:28 53.05600 7.08617 22921 ft 435 kts 75°
2026-05-06 18:28 53.06394 7.13466 22915 ft 435 kts 75°
2026-05-06 18:29 53.07186 7.18333 22917 ft 436 kts 75°
2026-05-06 18:29 53.07977 7.23207 22776 ft 441 kts 75°
2026-05-06 18:29 53.08775 7.28154 22401 ft 442 kts 75°
2026-05-06 18:29 53.09556 7.33014 22003 ft 440 kts 75°
2026-05-06 18:30 53.10350 7.37976 21592 ft 437 kts 75°
2026-05-06 18:30 53.11121 7.42790 21206 ft 435 kts 75°
2026-05-06 18:30 53.11897 7.47627 20813 ft 432 kts 75°
2026-05-06 18:30 53.12668 7.52444 20409 ft 429 kts 75°
2026-05-06 18:31 53.13430 7.57231 19997 ft 426 kts 75°
2026-05-06 18:31 53.14184 7.61980 19557 ft 424 kts 75°
2026-05-06 18:31 53.14933 7.66707 19117 ft 420 kts 75°
2026-05-06 18:31 53.15673 7.71380 18684 ft 413 kts 75°
2026-05-06 18:32 53.16397 7.75978 18264 ft 409 kts 75°
2026-05-06 18:32 53.17112 7.80539 17771 ft 405 kts 75°
2026-05-06 18:32 53.17819 7.85069 17276 ft 402 kts 75°
2026-05-06 18:32 53.18518 7.89559 16808 ft 399 kts 75°
2026-05-06 18:33 53.19212 7.94026 16311 ft 396 kts 75°
2026-05-06 18:33 53.19899 7.98450 15799 ft 393 kts 75°
2026-05-06 18:33 53.20578 8.02845 15291 ft 390 kts 75°
2026-05-06 18:33 53.21250 8.07207 14794 ft 386 kts 75°
2026-05-06 18:34 53.21912 8.11508 14291 ft 375 kts 74°
2026-05-06 18:34 53.22542 8.15622 13810 ft 358 kts 74°
2026-05-06 18:34 53.23141 8.19559 13285 ft 343 kts 74°
2026-05-06 18:34 53.23714 8.23333 12764 ft 330 kts 74°
2026-05-06 18:35 53.24274 8.27014 12238 ft 324 kts 74°
2026-05-06 18:35 53.24828 8.30644 11728 ft 323 kts 74°
2026-05-06 18:35 53.25384 8.34284 11219 ft 324 kts 74°
2026-05-06 18:35 53.25936 8.37906 10929 ft 318 kts 74°
2026-05-06 18:36 53.26467 8.41416 10895 ft 303 kts 74°
2026-05-06 18:36 53.26972 8.44773 10900 ft 295 kts 74°
2026-05-06 18:36 53.27468 8.48081 10899 ft 293 kts 74°
2026-05-06 18:36 53.27961 8.51389 10901 ft 293 kts 74°
2026-05-06 18:37 53.28455 8.54686 10900 ft 293 kts 74°
2026-05-06 18:37 53.28949 8.57985 10896 ft 293 kts 74°
2026-05-06 18:37 53.29441 8.61281 10899 ft 293 kts 74°
2026-05-06 18:37 53.29932 8.64581 10898 ft 293 kts 74°
2026-05-06 18:38 53.30420 8.67880 10897 ft 293 kts 74°
2026-05-06 18:38 53.30909 8.71185 10897 ft 293 kts 74°
2026-05-06 18:38 53.31398 8.74491 10898 ft 293 kts 74°
2026-05-06 18:38 53.31884 8.77783 10900 ft 290 kts 74°
2026-05-06 18:39 53.32367 8.81060 10898 ft 290 kts 74°
2026-05-06 18:39 53.32842 8.84286 10899 ft 289 kts 74°
2026-05-06 18:39 53.33321 8.87553 10856 ft 290 kts 74°
2026-05-06 18:40 53.34274 8.94089 10152 ft 288 kts 74°
2026-05-06 18:40 53.34748 8.97336 9776 ft 287 kts 74°
2026-05-06 18:40 53.35221 9.00587 9341 ft 287 kts 75°
2026-05-06 18:40 53.35687 9.03820 8919 ft 286 kts 75°
2026-05-06 18:41 53.36151 9.07043 8500 ft 284 kts 75°
2026-05-06 18:41 53.36613 9.10244 8084 ft 282 kts 75°
2026-05-06 18:41 53.37077 9.13434 7675 ft 281 kts 75°
2026-05-06 18:41 53.37535 9.16600 7270 ft 278 kts 75°
2026-05-06 18:42 53.37984 9.19707 6840 ft 269 kts 76°
2026-05-06 18:42 53.38411 9.22690 6422 ft 257 kts 76°
2026-05-06 18:42 53.38817 9.25540 5978 ft 247 kts 76°
2026-05-06 18:42 53.39206 9.28285 5533 ft 238 kts 76°
2026-05-06 18:43 53.39582 9.30930 5117 ft 228 kts 75°
2026-05-06 18:43 53.39945 9.33477 4781 ft 223 kts 76°
2026-05-06 18:43 53.40304 9.35991 4475 ft 220 kts 76°
2026-05-06 18:43 53.40658 9.38484 4166 ft 219 kts 76°
2026-05-06 18:44 53.41008 9.40947 4011 ft 217 kts 76°
2026-05-06 18:44 53.41356 9.43403 4013 ft 219 kts 76°
2026-05-06 18:44 53.41706 9.45879 4011 ft 217 kts 76°
2026-05-06 18:44 53.42050 9.48338 4012 ft 217 kts 76°
2026-05-06 18:45 53.42396 9.50806 4014 ft 217 kts 76°
2026-05-06 18:45 53.42741 9.53265 4009 ft 217 kts 76°
2026-05-06 18:45 53.43088 9.55734 4012 ft 218 kts 76°
2026-05-06 18:45 53.43317 9.57364 4009 ft 217 kts 76°
2026-05-06 18:46 53.44048 9.60476 4008 ft 216 kts 57°
2026-05-06 18:46 53.44950 9.62505 4010 ft 217 kts 51°
2026-05-06 18:46 53.45917 9.64449 4008 ft 217 kts 51°
2026-05-06 18:46 53.46860 9.66324 4001 ft 202 kts 51°
2026-05-06 18:47 53.47712 9.68023 4026 ft 183 kts 51°
2026-05-06 18:47 53.48501 9.69599 4004 ft 168 kts 51°
2026-05-06 18:47 53.49245 9.71087 3931 ft 165 kts 51°
2026-05-06 18:47 53.49984 9.72565 3751 ft 164 kts 51°
2026-05-06 18:48 53.50708 9.74014 3560 ft 164 kts 51°
2026-05-06 18:48 53.51439 9.75478 3344 ft 163 kts 51°
2026-05-06 18:48 53.52167 9.76938 3125 ft 163 kts 51°
2026-05-06 18:48 53.52894 9.78395 2892 ft 162 kts 51°
2026-05-06 18:49 53.53617 9.79845 2672 ft 161 kts 51°
2026-05-06 18:49 53.54335 9.81286 2459 ft 160 kts 51°
2026-05-06 18:49 53.55049 9.82721 2237 ft 159 kts 51°
2026-05-06 18:49 53.55759 9.84148 2026 ft 158 kts 51°
2026-05-06 18:50 53.56459 9.85555 1800 ft 156 kts 51°
2026-05-06 18:50 53.57121 9.86886 1591 ft 140 kts 51°
2026-05-06 18:50 53.57730 9.88112 1405 ft 134 kts 51°
2026-05-06 18:50 53.58320 9.89300 1220 ft 132 kts 50°
2026-05-06 18:51 53.58904 9.90477 1024 ft 131 kts 51°
2026-05-06 18:51 53.59483 9.91645 839 ft 129 kts 50°
2026-05-06 18:51 53.60064 9.92816 672 ft 130 kts 50°
2026-05-06 18:51 53.60645 9.93987 490 ft 131 kts 50°
2026-05-06 18:52 53.61232 9.95173 321 ft 132 kts 50°
2026-05-06 18:52 53.61820 9.96359 135 ft 131 kts 49°
2026-05-06 18:52 53.62398 9.97519 42 ft 124 kts 49°
2026-05-06 18:52 53.62845 9.98427 44 ft 75 kts 50°
2026-05-06 18:53 53.63071 9.98883 46 ft 26 kts 50°
2026-05-06 18:53 53.63147 9.99040 46 ft 21 kts 51°
2026-05-06 18:53 53.63243 9.99243 47 ft 23 kts 51°
2026-05-06 18:53 53.63303 9.99479 47 ft 31 kts 97°
2026-05-06 18:54 53.63280 9.99648 47 ft 1 kts 103°
2026-05-06 18:54 53.63278 9.99656 48 ft 0 kts 104°
2026-05-06 18:55 53.63276 9.99671 48 ft 6 kts 105°
2026-05-06 18:55 53.63282 9.99811 48 ft 18 kts 70°
2026-05-06 18:55 53.63364 9.99978 48 ft 18 kts 39°
2026-05-06 18:55 53.63435 10.00102 48 ft 13 kts 85°
2026-05-06 18:56 53.63370 10.00162 48 ft 11 kts 181°
2026-05-06 18:56 53.63306 10.00164 48 ft 8 kts 175°
2026-05-06 18:56 53.63267 10.00182 48 ft 4 kts 152°
2026-05-06 18:56 53.63250 10.00214 48 ft 3 kts 126°
2026-05-06 18:57 53.63243 10.00292 48 ft 9 kts 87°
2026-05-06 18:57 53.63245 10.00352 48 ft 0 kts 87°